Temp
60 60 59 59 59 59 59 59 58 59 59 58 59 58 59 60 60 59 60 60 58 57 57 57 58 58 57 56 55 55 55 54 53 56 53 53 52 52 53 53 54 53 53
60 61 60 60 60 59 59 59 60 59 59 60 59 59 58 59 58 58 59 60 59 57 58 57 57 57 55 57 57 56 55 56 55 53 53 50 49 50 49 50 51 53 52
60 60 60 59 59 59 59 60 60 59 58 59 60 59 59 59 58 59 61 60 59 59 59 57 58 56 56 57 56 56 56 56 54 55 55 47 44 44 44 45 45 46 48
60 60 59 59 60 59 60 60 60 59 58 58 59 59 60 60 61 60 60 59 59 60 59 58 58 57 57 57 56 57 57 55 54 54 52 42 42 42 42 42 41 42 42
59 60 61 61 61 61 60 60 60 59 58 59 59 59 59 60 61 60 61 60 60 59 57 56 55 50 43 46 54 56 54 53 53 46 40 38 37 37 37 38 36 37 39
59 59 61 61 61 60 60 59 59 58 59 58 58 58 57 60 52 48 54 57 56 56 55 43 41 40 38 38 39 38 39 46 43 39 37 35 35 35 35 34 34 34 34
59 59 59 60 60 61 61 60 59 59 59 57 57 57 57 58 48 48 46 58 56 55 49 42 39 38 37 37 36 36 35 35 34 38 35 33 32 33 34 33 32 32 32
60 59 60 59 59 60 60 61 60 60 59 58 57 58 58 57 46 46 44 50 41 40 41 40 38 37 36 36 35 33 33 33 34 34 34 32 32 34 35 35 32 32 32
61 61 60 59 59 59 58 59 60 59 59 59 59 58 58 42 39 40 42 38 35 34 35 36 35 35 35 37 33 30 30 30 34 35 35 36 35 35 34 31 29 28 26
49 51 57 61 60 59 59 58 58 58 55 46 42 40 39 38 38 39 40 35 33 32 32 32 33 33 32 33 32 31 29 29 31 31 30 31 32 32 31 29 28 25 25
46 46 48 50 54 57 58 52 45 42 41 39 37 36 35 35 36 37 38 36 33 31 31 30 31 32 32 32 32 30 29 30 29 28 27 28 29 29 28 28 28 26 23
41 39 39 41 45 45 43 41 40 39 35 33 32 31 32 33 34 34 34 33 33 30 28 29 31 32 32 31 30 30 30 29 28 26 24 24 25 25 26 26 26 25 26
36 35 35 36 37 39 40 38 36 36 34 32 31 29 29 31 32 32 33 32 31 29 30 31 31 31 30 28 29 29 27 26 24 22 22 22 23 25 25 24 25 25 25
33 32 32 31 31 33 34 35 34 32 32 31 30 29 28 29 29 30 30 30 31 30 29 28 28 28 27 27 25 25 24 24 23 22 21 22 23 22 19 21 18 19 18
32 32 31 30 30 30 30 31 31 31 32 30 29 29 28 27 28 30 30 29 28 28 28 28 26 25 24 23 22 23 23 23 20 20 19 18 18 18 17 18 17 16 13
29 28 29 30 29 30 29 28 32 31 32 32 32 31 31 32 32 32 31 31 30 29 26 23 22 21 21 21 19 19 19 19 19 18 17 16 15 14 15 15 15 11 10
27 27 27 27 27 27 27 27 25 28 31 31 31 31 32 31 31 30 29 28 27 25 20 19 18 18 18 18 18 17 15 17 17 15 14 13 13 13 12 12 11 11 9
26 26 25 24 25 25 25 24 24 23 22 23 28 28 28 28 28 27 26 24 19 20 19 17 16 16 16 16 16 15 14 14 13 12 9 8 6 9 8 8 8 1 7
26 25 24 24 24 24 23 23 22 21 20 19 19 20 22 25 24 23 23 18 16 16 16 15 15 14 13 13 11 9 4 3 3 2 4 4 -5 3 1 5 5 4 4
25 25 24 22 21 21 21 21 21 20 19 18 17 16 17 17 14 13 14 13 13 13 13 13 12 12 10 9 6 3 4 4 1 3 -9 -10 -13 -4 -2 -0 -2 -1 5
24 23 23 21 20 20 19 19 19 18 17 16 14 15 16 14 11 11 11 10 10 10 9 9 8 7 5 2 5 1 -0 -7 -2 -2 -2 -2 -14 -5 -0 -1 -2 2 5
23 23 22 21 20 19 18 18 17 16 15 13 13 12 12 10 9 8 8 6 6 7 6 5 6 6 4 3 -1 -6 -6 -10 -9 -8 -5 -6 -4 -5 -5 -5 -6 -5 1
20 19 19 19 19 17 16 16 14 13 12 12 12 10 9 6 5 5 4 1 3 0 -1 -1 -2 2 0 -5 -2 -0 -2 -3 -5 -10 -12 -12 -7 -7 -12 -9 -5 -4 -4
19 18 17 16 15 14 13 11 11 9 8 7 7 6 5 1 -1 -1 -4 -6 -4 -6 -6 -4 0 1 1 -8 -10 -7 -2 -7 -6 -6 -11 -13 -9 -4 -8 -6 -4 -6 -3
17 15 14 13 13 11 11 10 8 7 6 5 5 6 4 2 -1 -8 -11 -10 -6 -6 -5 -7 -7 -6 -7 -8 -5 -1 -4 -3 -10 -8 -11 -10 -10 -11 -9 -5 -5 -2 -2
14 14 13 12 10 9 8 7 6 5 3 4 2 -1 -1 -1 -4 -12 -11 -10 -10 -10 -9 -10 -8 -7 -7 -4 -0 -1 -6 -5 -8 -6 -10 -8 -10 -8 -8 -6 -5 -3 -2
MSLP
1004.95 1005.83 1006.67 1007.34 1008.18 1008.99 1009.24 1009.92 1010.30 1010.75 1011.24 1011.95 1012.57 1013.27 1013.90 1014.51 1014.91 1015.26 1015.67 1015.95 1016.28 1016.63 1017.02 1017.31 1017.48 1017.62 1017.77 1017.96 1018.07 1018.26 1018.61 1018.89 1019.09 1018.17 1018.17 1017.86 1018.12 1018.06 1017.88 1018.01 1018.25 1018.56 1018.65
1004.37 1005.22 1006.19 1006.91 1007.51 1008.20 1008.93 1009.36 1009.97 1010.46 1010.88 1011.34 1012.08 1012.69 1013.23 1013.67 1014.09 1014.47 1014.87 1015.17 1015.46 1016.01 1016.27 1016.73 1016.79 1016.98 1017.09 1017.19 1017.36 1017.49 1017.64 1017.49 1017.97 1017.99 1017.77 1017.70 1017.80 1017.93 1017.94 1018.06 1018.23 1018.33 1018.43
1003.82 1004.77 1005.66 1006.39 1007.01 1007.47 1007.95 1008.70 1009.40 1009.98 1010.55 1011.02 1011.49 1011.97 1012.36 1012.71 1013.26 1013.67 1014.06 1014.42 1014.78 1015.01 1015.22 1015.70 1015.82 1016.31 1016.55 1016.52 1016.59 1016.72 1016.66 1016.68 1016.89 1017.32 1017.30 1017.55 1018.02 1018.24 1018.23 1018.38 1018.58 1018.64 1018.77
1003.28 1004.14 1004.94 1005.63 1006.27 1007.07 1007.64 1008.00 1008.49 1009.25 1009.83 1010.35 1010.88 1011.37 1011.78 1012.10 1012.40 1012.79 1013.22 1013.50 1013.78 1014.00 1014.34 1014.73 1014.97 1015.29 1015.47 1015.53 1015.81 1015.82 1015.88 1016.17 1016.47 1016.77 1016.99 1017.74 1018.17 1018.42 1018.40 1018.82 1018.94 1019.32 1018.76
1002.68 1003.04 1004.01 1004.90 1005.52 1006.14 1006.82 1007.46 1007.99 1008.53 1009.04 1009.63 1010.19 1010.64 1011.12 1011.44 1011.75 1012.15 1012.43 1012.69 1012.97 1013.33 1013.77 1014.00 1014.27 1014.60 1014.90 1015.09 1015.17 1015.04 1015.44 1015.79 1016.03 1016.43 1017.19 1017.93 1018.32 1018.56 1018.80 1018.98 1019.24 1019.56 1019.63
1001.91 1002.27 1002.88 1003.91 1004.59 1005.18 1005.88 1006.47 1007.12 1007.73 1008.24 1008.77 1009.13 1009.65 1010.08 1010.31 1010.79 1011.31 1011.77 1012.25 1012.57 1012.81 1013.24 1013.98 1014.52 1015.05 1015.44 1015.53 1015.46 1015.47 1015.54 1015.65 1015.87 1016.45 1017.20 1017.38 1018.52 1019.62 1018.84 1019.39 1019.81 1019.76 1019.99
1002.07 1002.05 1002.50 1003.09 1003.55 1004.16 1005.03 1005.72 1006.13 1006.63 1007.38 1007.94 1008.49 1008.96 1009.18 1009.45 1009.80 1010.26 1010.78 1011.37 1011.75 1012.11 1012.80 1013.86 1014.63 1015.26 1015.51 1015.81 1016.00 1015.97 1016.24 1016.05 1015.91 1016.39 1017.53 1018.39 1019.20 1018.90 1019.62 1020.10 1020.43 1020.32 1020.61
1001.66 1002.02 1002.40 1002.49 1003.31 1003.74 1004.17 1004.45 1005.19 1005.81 1006.32 1006.90 1007.49 1007.89 1008.33 1008.58 1008.98 1009.49 1010.13 1011.00 1011.79 1012.29 1012.65 1013.22 1013.93 1014.79 1015.37 1015.78 1016.04 1016.52 1017.10 1017.26 1017.33 1017.49 1018.34 1018.12 1019.31 1019.72 1019.79 1020.01 1020.10 1020.38 1020.67
1001.63 1001.65 1002.21 1002.49 1002.60 1002.94 1003.47 1003.90 1004.40 1005.05 1005.53 1005.94 1006.31 1006.95 1007.70 1008.53 1008.70 1009.06 1009.98 1011.31 1012.35 1013.04 1013.47 1013.83 1014.44 1015.18 1015.75 1016.23 1016.13 1017.31 1017.52 1018.87 1019.56 1018.19 1019.07 1020.37 1019.68 1020.63 1020.11 1020.04 1021.03 1020.88 1021.06
1003.29 1002.77 1002.19 1001.83 1002.30 1002.50 1002.69 1003.29 1003.97 1004.61 1005.06 1005.66 1006.48 1007.21 1007.71 1008.54 1009.02 1009.02 1009.51 1011.05 1012.39 1013.22 1014.21 1014.70 1014.90 1015.30 1016.48 1016.84 1016.77 1017.80 1017.94 1020.08 1019.81 1020.35 1020.58 1020.82 1020.97 1020.87 1021.06 1021.53 1021.63 1021.67 1022.11
1004.36 1003.86 1003.09 1002.18 1002.09 1002.26 1002.72 1003.42 1003.94 1004.67 1005.65 1006.68 1007.67 1008.55 1009.08 1009.65 1010.12 1010.31 1010.42 1010.28 1011.53 1013.29 1014.84 1015.49 1015.95 1016.05 1016.08 1017.18 1018.20 1018.30 1018.55 1020.18 1020.58 1020.70 1022.27 1022.10 1021.78 1021.67 1021.74 1022.02 1022.02 1022.30 1022.70
1005.45 1005.10 1004.84 1004.11 1003.45 1003.42 1003.20 1004.14 1004.90 1005.36 1006.40 1007.58 1008.23 1009.25 1010.08 1010.61 1010.89 1011.26 1011.50 1012.02 1013.16 1013.83 1015.68 1016.62 1017.67 1017.59 1017.99 1018.06 1018.61 1020.35 1019.65 1020.63 1022.16 1022.21 1022.71 1023.36 1023.56 1022.82 1022.85 1022.94 1022.93 1023.09 1023.44
1006.33 1006.26 1005.94 1005.80 1005.59 1005.41 1005.35 1005.80 1006.24 1006.49 1007.23 1008.37 1008.99 1009.63 1010.85 1011.75 1012.20 1012.03 1013.13 1013.38 1014.03 1014.48 1015.59 1017.16 1018.27 1018.98 1019.26 1019.38 1020.29 1020.68 1020.46 1022.25 1022.88 1022.98 1023.55 1024.32 1024.34 1023.65 1023.91 1023.59 1023.64 1023.80 1024.13
1007.48 1007.42 1007.43 1007.06 1007.11 1007.19 1007.55 1008.00 1008.37 1008.70 1008.25 1008.39 1009.23 1010.54 1011.30 1012.54 1013.22 1013.92 1013.72 1015.21 1015.33 1016.18 1017.18 1017.27 1018.20 1019.07 1018.41 1020.40 1020.88 1021.53 1021.70 1023.09 1022.73 1023.89 1024.45 1024.08 1023.95 1024.42 1024.42 1024.38 1024.42 1024.15 1024.25
1008.98 1009.50 1009.11 1008.44 1008.39 1008.67 1009.31 1009.99 1010.30 1010.98 1011.64 1010.85 1011.49 1011.44 1011.23 1012.53 1013.65 1015.09 1015.35 1014.10 1014.92 1017.13 1017.61 1018.44 1018.66 1020.29 1020.22 1021.22 1022.43 1022.84 1023.56 1024.05 1024.32 1024.55 1024.73 1024.77 1024.67 1025.08 1025.09 1024.95 1025.03 1025.41 1025.46
1010.31 1010.80 1011.51 1011.29 1010.65 1009.98 1009.67 1011.00 1011.81 1012.51 1011.96 1014.81 1012.50 1013.36 1013.95 1013.25 1014.48 1015.45 1015.90 1017.20 1017.03 1018.39 1019.27 1019.80 1020.24 1020.97 1022.34 1023.29 1023.01 1023.96 1024.58 1024.47 1024.87 1025.28 1025.56 1025.36 1025.56 1025.83 1025.75 1025.62 1025.94 1026.32 1025.96
1011.56 1011.83 1012.36 1013.06 1013.07 1012.54 1012.69 1012.56 1011.75 1013.60 1014.30 1014.64 1014.41 1014.39 1015.79 1016.22 1016.11 1016.39 1016.95 1018.49 1018.95 1019.62 1020.21 1021.01 1021.63 1022.48 1023.82 1024.34 1024.56 1025.07 1025.40 1025.60 1025.78 1025.63 1026.24 1026.30 1026.52 1026.74 1026.73 1026.54 1026.56 1026.70 1026.49
1012.93 1013.35 1014.00 1013.80 1015.38 1014.84 1014.62 1014.71 1015.36 1015.34 1015.74 1016.45 1017.29 1017.41 1018.13 1018.58 1018.18 1018.24 1019.14 1019.68 1020.24 1021.17 1021.85 1022.61 1022.99 1023.65 1024.78 1025.29 1025.71 1026.32 1026.69 1026.28 1026.18 1026.65 1027.44 1027.78 1027.68 1027.57 1027.50 1027.34 1027.02 1027.10 1027.02
1014.08 1014.37 1015.49 1015.79 1016.43 1016.93 1016.34 1016.51 1017.18 1017.76 1017.84 1018.62 1019.67 1019.67 1019.93 1020.11 1020.03 1020.73 1020.91 1021.37 1022.06 1022.90 1023.74 1024.10 1024.71 1025.33 1025.84 1026.37 1026.52 1027.07 1027.08 1027.29 1027.46 1027.79 1028.41 1028.53 1028.37 1028.24 1028.24 1027.85 1027.85 1027.60 1027.29
1015.59 1016.01 1016.87 1017.38 1017.23 1018.62 1018.08 1017.93 1018.54 1019.06 1019.32 1020.27 1020.93 1021.45 1021.34 1021.60 1022.57 1023.22 1023.36 1023.51 1023.82 1024.46 1025.19 1025.69 1025.91 1026.75 1027.16 1027.31 1027.36 1027.11 1027.39 1027.94 1028.17 1028.64 1028.69 1028.95 1028.93 1028.69 1028.66 1028.51 1028.55 1028.44 1027.90
1017.19 1017.55 1018.25 1018.47 1018.89 1019.43 1019.84 1019.64 1020.13 1020.45 1021.16 1021.70 1022.28 1022.93 1022.88 1023.12 1024.16 1024.83 1025.21 1025.57 1025.73 1026.16 1026.61 1027.00 1027.39 1027.61 1028.30 1028.33 1028.11 1028.08 1028.07 1028.63 1029.12 1029.20 1029.04 1029.20 1029.15 1029.20 1029.14 1028.90 1028.82 1028.75 1027.97
1018.60 1018.82 1019.05 1019.74 1020.21 1020.84 1021.09 1021.37 1021.50 1022.03 1022.75 1023.38 1023.86 1024.32 1024.36 1025.17 1025.68 1026.57 1027.01 1027.18 1027.37 1027.34 1027.59 1027.94 1028.50 1028.63 1028.99 1028.70 1028.76 1028.86 1028.64 1028.82 1029.09 1029.62 1029.71 1029.73 1029.64 1029.42 1029.38 1029.16 1028.85 1028.57 1028.13
1019.98 1020.26 1020.58 1020.80 1021.53 1021.99 1022.24 1022.87 1023.10 1023.61 1024.18 1024.65 1025.04 1025.52 1026.00 1026.75 1027.31 1028.05 1028.46 1028.56 1028.32 1028.50 1028.58 1028.79 1029.04 1029.13 1029.04 1028.89 1028.64 1028.79 1028.99 1029.29 1029.49 1029.83 1030.32 1030.04 1029.59 1029.82 1029.70 1028.94 1028.57 1028.41 1028.22
1021.40 1021.70 1022.12 1022.50 1022.72 1023.44 1023.86 1024.32 1024.73 1025.08 1025.49 1025.89 1026.40 1026.88 1027.35 1027.90 1028.59 1029.11 1029.28 1029.37 1029.25 1029.43 1029.38 1029.29 1029.12 1029.03 1028.86 1029.28 1029.48 1029.34 1029.27 1029.27 1029.59 1029.75 1029.57 1029.66 1029.87 1029.64 1029.06 1028.78 1028.61 1028.38 1028.03
1023.06 1023.26 1023.59 1023.96 1024.30 1024.59 1025.12 1025.63 1026.11 1026.59 1027.02 1027.25 1027.43 1027.86 1028.36 1028.89 1029.56 1029.99 1030.08 1030.10 1030.10 1030.05 1029.96 1030.04 1030.14 1029.77 1029.68 1029.63 1029.56 1029.34 1029.51 1029.55 1029.25 1029.18 1029.31 1029.30 1029.19 1029.04 1028.84 1028.77 1028.34 1027.97 1027.66
1024.42 1024.63 1025.00 1025.34 1025.81 1026.19 1026.58 1027.01 1027.46 1027.79 1028.12 1028.42 1028.68 1029.02 1029.28 1029.91 1030.49 1030.87 1030.98 1031.14 1031.06 1031.10 1030.60 1030.27 1030.14 1029.83 1029.84 1029.71 1029.37 1029.31 1029.42 1029.13 1029.24 1029.21 1028.90 1028.55 1028.73 1028.84 1028.62 1028.35 1027.99 1027.73 1027.21
Wind_Speed
18 15 15 14 13 11 12 10 9 10 10 11 12 12 15 15 14 13 12 11 8 7 7 9 12 10 7 5 5 6 6 6 7 7 5 4 5 6 4 5 5 6 7
16 16 15 14 14 14 12 14 10 11 11 13 12 12 11 11 10 11 12 11 11 13 12 11 13 6 8 9 7 10 9 9 8 12 5 4 6 2 1 2 2 2 3
16 15 15 15 15 15 15 14 13 11 12 11 13 14 14 13 11 12 13 13 13 15 13 12 12 8 10 8 9 9 8 7 7 8 9 1 2 2 2 3 3 3 4
16 16 16 16 16 14 14 15 15 14 14 14 13 14 14 14 14 14 14 13 12 12 12 12 12 12 13 12 10 12 11 9 8 8 6 2 1 1 2 1 2 3 3
17 17 16 15 15 15 16 15 14 14 14 15 16 15 13 13 12 15 14 14 14 12 10 10 7 1 5 3 7 10 9 9 7 3 3 2 1 0 2 1 3 1 3
16 17 17 17 15 16 16 16 15 15 15 15 16 16 16 13 15 16 13 10 10 11 10 4 7 10 11 12 14 14 7 4 4 3 2 3 3 2 2 2 1 2 1
13 15 16 17 17 17 15 16 17 17 15 15 15 15 16 16 17 19 19 13 11 11 7 9 6 6 9 10 14 18 18 18 8 5 6 3 3 3 2 3 3 3 2
14 13 14 16 16 15 16 17 17 16 17 16 16 16 15 14 14 16 15 8 5 5 5 9 10 10 8 9 11 13 12 12 10 10 9 11 7 3 4 2 3 3 1
10 11 13 13 15 16 17 17 15 14 14 15 15 17 17 5 8 14 14 9 9 8 7 8 8 9 12 15 14 14 15 11 11 19 17 15 19 16 10 5 5 4 3
10 11 9 11 15 16 16 16 14 13 10 6 5 5 6 8 9 17 17 10 11 10 10 10 16 15 15 14 14 11 15 8 8 11 11 14 13 16 18 10 5 6 4
10 10 11 9 3 6 10 5 5 8 9 8 9 9 10 8 7 8 6 10 12 11 9 8 10 22 26 23 15 11 13 9 11 9 7 6 7 8 7 8 9 7 5
10 11 13 13 9 7 9 7 6 9 11 10 12 11 9 10 14 18 21 20 17 14 12 11 13 24 24 24 16 19 18 10 6 6 7 6 6 7 7 8 9 7 5
12 13 12 14 14 14 11 9 7 7 8 8 9 11 10 10 11 27 27 28 26 18 12 20 25 25 23 19 21 18 13 8 6 7 6 6 5 7 8 7 7 8 7
11 12 12 14 15 14 11 10 9 7 6 9 10 10 11 10 10 10 13 16 25 18 16 14 13 13 18 12 11 10 9 6 6 6 5 5 6 6 6 6 6 6 5
12 11 10 12 15 17 18 12 12 14 10 8 9 8 13 12 11 11 11 11 11 13 13 8 10 8 10 10 8 8 6 6 6 5 5 5 6 6 5 6 6 5 4
12 10 9 8 9 11 15 17 29 25 30 22 24 14 11 22 26 25 24 21 23 17 9 9 9 9 8 7 8 7 6 7 6 6 5 6 6 5 5 5 5 3 4
11 10 9 9 8 9 11 12 17 21 30 28 27 29 26 25 27 28 27 25 22 16 10 9 9 8 7 7 6 6 6 5 6 6 6 5 4 4 4 4 4 5 5
13 16 9 10 8 9 10 10 10 11 13 13 22 21 26 25 25 25 23 18 12 12 9 8 8 7 6 6 6 5 5 5 6 6 5 4 3 3 3 4 4 2 4
11 10 10 9 9 9 10 11 10 10 11 10 9 13 17 26 26 24 21 10 9 9 7 8 7 7 6 6 5 4 4 4 3 4 3 4 3 3 3 4 4 6 5
12 16 12 8 9 8 8 10 9 9 10 9 8 7 7 9 10 9 9 9 8 8 7 7 7 6 5 5 4 3 4 4 4 4 3 3 2 2 2 3 4 3 5
9 9 12 9 9 8 8 9 9 9 9 9 9 10 14 10 9 8 8 7 7 7 6 6 5 5 3 2 4 4 5 3 2 2 4 3 3 3 4 2 2 4 5
8 8 9 8 8 8 8 8 9 9 9 9 8 10 14 8 8 7 7 7 5 6 4 5 4 4 2 3 3 3 4 3 3 2 3 2 2 2 2 2 2 2 5
9 9 9 9 9 10 9 8 8 8 8 8 7 7 7 7 6 6 5 3 5 4 3 3 3 3 2 2 3 3 3 1 2 3 2 1 1 2 2 2 2 3 3
9 9 9 8 8 8 8 8 8 8 7 7 7 6 6 5 5 5 4 3 4 4 3 3 4 4 4 4 2 1 1 2 2 3 3 1 2 3 2 2 3 4 5
8 8 8 8 7 7 8 8 7 6 6 6 6 6 6 6 5 4 4 4 4 5 5 3 3 3 3 2 2 3 1 3 0 1 2 2 3 4 3 3 4 5 7
8 9 8 7 7 6 6 6 6 5 5 5 5 4 4 5 4 4 3 3 3 2 3 2 3 3 3 0 2 3 3 2 2 4 2 1 2 3 2 4 7 6 8
Wind_Direction
176 175 182 182 178 187 181 184 176 172 175 175 178 180 191 201 200 197 204 207 196 217 223 215 223 223 223 222 215 221 219 209 232 267 231 223 223 222 220 209 224 232 239
176 175 184 186 184 182 192 189 182 185 184 183 187 192 185 193 193 194 200 205 206 225 221 217 224 217 221 229 228 234 228 225 221 243 251 237 218 228 322 242 261 258 285
171 180 185 190 192 192 191 190 192 184 188 187 193 199 203 199 195 207 210 206 206 215 216 214 224 207 228 231 227 234 235 238 222 239 249 133 80 57 85 72 63 79 61
176 181 190 191 191 197 199 197 193 193 195 198 198 202 207 211 213 212 212 214 215 216 215 214 219 218 226 230 236 236 240 235 232 242 249 142 140 97 86 132 81 14 84
184 188 194 194 193 192 197 200 201 200 198 201 207 210 209 214 215 218 220 223 223 223 216 213 222 209 26 345 242 241 237 239 245 188 152 136 148 195 118 15 98 91 62
190 194 189 195 195 195 196 196 198 203 208 204 204 209 213 217 213 209 210 214 215 218 225 124 110 104 84 81 81 72 55 204 187 145 120 143 115 47 60 66 77 75 123
204 194 196 196 199 198 195 197 201 203 200 208 211 214 220 221 210 207 207 218 212 217 184 158 137 129 124 111 90 79 65 66 72 130 110 82 86 114 81 70 44 61 25
208 209 204 197 207 205 204 204 205 202 204 206 211 216 217 223 212 211 206 207 112 105 134 153 148 148 144 135 113 91 75 65 65 75 87 99 96 74 102 121 106 131 62
219 217 210 209 205 202 209 207 203 203 203 206 210 211 218 172 182 155 134 119 105 93 91 100 113 116 128 131 113 105 96 81 69 94 90 79 81 68 69 77 49 52 45
353 327 286 203 214 210 209 205 205 209 203 139 106 79 110 132 154 150 135 130 124 117 99 90 101 107 100 108 105 105 101 82 85 74 78 78 67 66 58 55 51 68 47
11 12 7 22 6 224 206 199 140 123 119 111 98 69 69 59 66 69 96 139 137 121 97 95 98 106 106 99 88 93 99 93 91 87 71 63 69 70 68 61 56 55 51
37 39 33 26 33 32 76 71 80 117 114 106 98 83 69 68 81 82 87 89 96 98 91 93 91 89 90 88 90 84 85 79 75 74 78 55 46 57 54 56 54 52 43
51 43 46 48 41 37 46 54 65 90 105 101 98 102 94 84 83 95 93 93 96 99 104 108 99 95 87 82 81 80 76 68 76 73 70 70 49 54 49 47 45 39 29
58 63 60 61 58 52 48 38 43 29 89 113 112 108 103 95 93 95 101 94 101 102 107 104 101 99 93 83 73 70 69 73 86 92 98 81 58 50 47 35 32 24 26
48 39 54 77 80 76 65 55 57 46 35 78 80 96 112 107 103 105 108 107 111 104 109 107 95 96 90 89 81 77 80 76 73 75 70 63 63 49 44 36 37 24 20
72 62 39 42 66 84 96 88 72 76 75 53 76 82 70 96 101 98 95 93 93 98 97 90 85 80 80 86 88 84 75 79 75 76 69 61 52 44 37 38 38 13 4
73 70 68 52 53 72 71 73 96 75 69 71 71 80 78 88 93 93 91 86 87 88 79 81 77 78 81 78 82 83 83 70 79 74 63 54 52 48 37 34 26 10 355
75 70 65 76 60 67 70 75 76 76 88 78 63 74 75 79 80 83 87 82 72 65 71 77 84 88 86 89 87 87 75 75 69 66 64 59 38 55 38 25 19 360 330
73 74 71 71 71 68 79 83 78 79 77 80 73 57 62 72 72 71 74 77 84 81 77 79 76 74 81 85 82 82 75 62 63 71 54 54 24 41 20 19 4 354 332
66 72 76 71 78 62 70 76 80 79 81 75 64 65 66 67 60 56 57 64 70 72 75 73 73 75 75 88 88 91 80 71 66 76 74 65 23 42 34 8 358 324 312
72 69 75 71 67 74 66 73 75 75 75 76 71 64 69 77 73 65 63 59 64 66 67 73 69 72 63 51 68 72 79 73 89 94 48 33 37 23 1 331 288 294 312
72 77 79 76 79 74 76 74 76 80 81 80 77 66 69 71 74 74 69 66 58 63 60 80 81 82 90 94 96 97 91 82 53 53 49 31 18 4 314 270 290 294 321
70 70 68 76 77 78 75 73 76 80 84 85 84 81 75 74 77 78 77 60 64 56 40 80 87 86 69 73 54 79 90 132 160 146 164 278 344 310 294 285 305 318 314
65 70 75 74 76 76 73 74 73 69 77 78 84 81 83 81 78 83 70 48 50 39 47 42 45 61 35 14 353 323 129 134 192 202 162 123 290 278 294 310 299 282 285
64 71 72 72 75 79 82 80 77 75 75 82 80 88 91 91 80 60 48 46 52 44 34 34 19 9 355 346 98 94 327 318 317 248 199 217 262 291 266 262 280 294 290
66 68 71 72 71 74 79 81 76 74 80 83 83 75 87 92 86 73 65 56 41 24 6 7 360 23 14 58 232 343 359 39 9 315 299 296 289 278 264 269 277 274 275